Weather History for Berlin, NH

Change the Weather History Date:

Thursday, July 11, 2013

  Actual Average Record
Temperature  
Mean Temperature 66 °F -  
Max Temperature 79 °F 74 °F 88 °F (2011)
Min Temperature 55 °F 48 °F 37 °F (2002)
Cooling Degree Days 2    
Growing Degree Days 16 (Base 50)    
Moisture  
Dew Point 62 °F    
Average Humidity 87    
Maximum Humidity 100    
Minimum Humidity 50    
Precipitation  
Precipitation 0.20 in - - ()
Sea Level Pressure  
Sea Level Pressure 29.84 in    
Wind  
Wind Speed 2 mph (NNW)    
Max Wind Speed 12 mph    
Max Gust Speed 25 mph    
Visibility 6 miles    
Events Fog , Rain    
Averages and records for this station are not official NWS values.
T = Trace of Precipitation, MM = Missing Value Source: NWS Daily Summary

Daily Weather History Graph

Daily Weather History Graph

Search for Another Location

Airport:

Trip Planner

Search our weather history database for the weather conditions in past years. The results will help you decide how hot, cold, wet, or windy it might be!

Date:

Astronomy

Jul. 11, 2013 Rise Set
Actual Time 5:10 AM EDT 8:29 PM EDT
Civil Twilight 4:34 AM EDT 9:05 PM EDT
Nautical Twilight 3:47 AM EDT 9:51 PM EDT
Astronomical Twilight 2:49 AM EDT 10:49 PM EDT
Moon 8:35 AM EDT (7/11) 9:57 PM EDT (7/11)
Length of Visible Light 16h 30m
Length of Day
15h 18m
Waxing Crescent, 10% of the Moon is Illuminated
Jul 11
Waxing Crescent
Jul 15
First Quarter
Jul 22
Full
Jul 29
Last Quarter
Aug 6
New

Hourly Weather History & Observations

Time (EDT) Temp. Dew Point Humidity Pressure Visibility Wind Dir Wind Speed Gust Speed Precip Events Conditions
12:16 AM 64.4 °F 62.6 °F 94% 29.80 in 10.0 mi Calm Calm - N/A   Mostly Cloudy
12:52 AM 64.0 °F 63.0 °F 96% 29.79 in 9.0 mi Calm Calm - N/A   Overcast
1:20 AM 64.4 °F 62.6 °F 94% 29.79 in 1.8 mi Calm Calm - N/A   Overcast
1:23 AM 64.4 °F 64.4 °F 100% 29.79 in 0.8 mi Calm Calm - N/A   Overcast
1:33 AM 64.4 °F 64.4 °F 100% 29.79 in 0.2 mi Calm Calm - N/A Fog Fog
1:50 AM 64.4 °F 64.4 °F 100% 29.79 in 0.2 mi Calm Calm - N/A Fog Fog
1:52 AM 64.0 °F 64.0 °F 100% 29.78 in 0.2 mi Calm Calm - N/A Fog Fog
2:28 AM 62.6 °F 62.6 °F 100% 29.78 in 0.5 mi Calm Calm - N/A Fog Fog
2:38 AM 64.4 °F 62.6 °F 94% 29.78 in 1.0 mi Calm Calm - N/A   Mist
2:44 AM 64.4 °F 62.6 °F 94% 29.78 in 0.2 mi Calm Calm - N/A Fog Fog
2:52 AM 63.0 °F 63.0 °F 100% 29.76 in 0.2 mi Calm Calm - N/A Fog Fog
2:59 AM 62.6 °F 62.6 °F 100% 29.78 in 0.5 mi Calm Calm - N/A Fog Fog
3:11 AM 62.6 °F 62.6 °F 100% 29.78 in 0.2 mi Calm Calm - N/A Fog Fog
3:44 AM 62.6 °F 62.6 °F 100% 29.79 in 0.2 mi Calm Calm - N/A Fog Fog
3:52 AM 63.0 °F 62.1 °F 97% 29.78 in 0.2 mi Calm Calm - N/A Fog Fog
4:09 AM 62.6 °F 62.6 °F 100% 29.80 in 1.0 mi NNW 6.9 mph - 0.01 in   Overcast
4:13 AM 62.6 °F 62.6 °F 100% 29.81 in 2.5 mi NW 6.9 mph - 0.01 in   Overcast
4:20 AM 64.4 °F 64.4 °F 100% 29.82 in 10.0 mi NNW 11.5 mph 18.4 mph 0.01 in   Overcast
4:34 AM 64.4 °F 64.4 °F 100% 29.82 in 3.0 mi NNW 9.2 mph - 0.06 in Rain Heavy Rain
4:52 AM 64.9 °F 64.0 °F 97% 29.81 in 7.0 mi ESE 3.5 mph - 0.10 in Rain Light Rain
5:52 AM 64.9 °F 64.0 °F 97% 29.81 in 10.0 mi Calm Calm - 0.03 in   Scattered Clouds
6:52 AM 66.0 °F 64.9 °F 96% 29.80 in 10.0 mi Calm Calm - 0.00 in   Scattered Clouds
7:52 AM 66.9 °F 64.9 °F 93% 29.83 in 10.0 mi Calm Calm - 0.00 in   Mostly Cloudy
8:52 AM 66.9 °F 66.0 °F 97% 29.84 in 8.0 mi Calm Calm - 0.03 in Rain Light Rain
9:52 AM 68.0 °F 66.0 °F 93% 29.84 in 10.0 mi Calm Calm - 0.04 in   Mostly Cloudy
10:52 AM 73.0 °F 66.9 °F 81% 29.85 in 10.0 mi Calm Calm - N/A   Partly Cloudy
11:52 AM 75.9 °F 64.9 °F 69% 29.85 in 10.0 mi Variable 5.8 mph - N/A   Mostly Cloudy
12:28 PM 73.4 °F 62.6 °F 69% 29.87 in 10.0 mi NNW 8.1 mph - N/A   Overcast
12:47 PM 73.4 °F 64.4 °F 73% 29.87 in 10.0 mi NNW 4.6 mph - 0.00 in   Overcast
12:52 PM 75.0 °F 64.0 °F 69% 29.86 in 10.0 mi NNW 4.6 mph - 0.00 in   Overcast
1:52 PM 75.0 °F 64.0 °F 69% 29.86 in 10.0 mi Calm Calm - N/A   Overcast
2:52 PM 78.1 °F 63.0 °F 60% 29.86 in 10.0 mi Variable 3.5 mph - N/A   Mostly Cloudy
3:52 PM 77.0 °F 61.0 °F 58% 29.86 in 10.0 mi NNW 5.8 mph - N/A   Mostly Cloudy
4:52 PM 78.1 °F 59.0 °F 52% 29.88 in 10.0 mi NNW 9.2 mph 25.3 mph N/A   Partly Cloudy
5:52 PM 77.0 °F 57.9 °F 52% 29.90 in 10.0 mi NW 6.9 mph - N/A   Scattered Clouds
6:52 PM 75.0 °F 55.0 °F 50% 29.92 in 10.0 mi NNW 10.4 mph - N/A   Mostly Cloudy
7:52 PM 70.0 °F 55.9 °F 61% 29.96 in 10.0 mi WNW 3.5 mph - N/A   Clear
8:52 PM 63.0 °F 59.0 °F 87% 29.99 in 10.0 mi Calm Calm - N/A   Clear
9:52 PM 57.9 °F 57.0 °F 97% 30.01 in 10.0 mi Calm Calm - N/A   Clear
10:52 PM 55.0 °F 54.0 °F 96% 30.03 in 10.0 mi Calm Calm - N/A   Clear
11:52 PM 55.0 °F 53.1 °F 93% 30.04 in 10.0 mi Calm Calm - N/A   Clear